Tracking 17780 objects as of 29-July-2016
HD Live streaming from Space Station
objects crossing your sky now

COSMOS 1626

Track COSMOS 1626 now!
10-day predictions
COSMOS 1626 is classified as:


NORAD ID: 15494
Int'l Code: 1985-009A
Perigee: 505.6 km
Apogee: 511.4 km
Inclination: 82.5 °
Period: 94.6 minutes
Semi major axis: 6879 km
RCS: 7.281 m2 (large)
Launch date: January 24, 1985
Source: Commonwealth of Independent States (former USSR) (CIS)
Launch site: PLESETSK MISSILE AND SPACE COMPLEX (PKMTR)
Your satellite tracking list
Your tracking list is empty





NASA's NSSDC Master Catalog

Two Line Element Set (TLE):
1 15494U 85009A   16210.13142832  .00001116  00000-0  48162-4 0  9993
2 15494  82.4784 213.6374 0004200  99.7846 307.6800 15.21478837719493
Source of the keplerian elements: AFSPC

N2YO: 1177